• In Belarus
  • List of Countries
  • For 7 days
  • Water Temperature
  • Satellite Maps
  • Weather Map
  • Weather Widgets
  • user-avatar
    Login

    Hourly Weather Tibissa

    Today, 24 August, Thursday

    Time Temperature Precipitation Wind Pressure Humidity
    00:00 +26°C° 0 mm 4 mps 688 mmHg 45%
    01:00 +23°C° 0 mm 4 mps 688 mmHg 52%
    02:00 +24°C° 0 mm 3 mps 688 mmHg 54%
    03:00 +24°C° 0 mm 2 mps 688 mmHg 56%
    04:00 +23°C° 0 mm 1 mps 687 mmHg 58%
    05:00 +23°C° 0 mm 1 mps 688 mmHg 57%
    06:00 +23°C° 0 mm 1 mps 688 mmHg 55%
    07:00 +24°C° 0 mm 1 mps 688 mmHg 54%
    08:00 +25°C° 0 mm 1 mps 689 mmHg 48%
    09:00 +27°C° 0 mm 1 mps 689 mmHg 42%
    10:00 +28°C° 0 mm 1 mps 690 mmHg 35%
    11:00 +29°C° 0 mm 1 mps 690 mmHg 31%
    12:00 +31°C° 0 mm 1 mps 690 mmHg 27%
    13:00 +32°C° 0 mm 2 mps 690 mmHg 23%
    14:00 +32°C° 0 mm 2 mps 689 mmHg 21%
    15:00 +34°C° 0 mm 2 mps 689 mmHg 20%
    16:00 +35°C° 0 mm 3 mps 689 mmHg 18%
    17:00 +34°C° 0 mm 3 mps 689 mmHg 19%
    18:00 +33°C° 0 mm 4 mps 689 mmHg 20%
    19:00 +33°C° 0 mm 4 mps 689 mmHg 21%
    20:00 +30°C° 0 mm 4 mps 689 mmHg 26%
    21:00 +29°C° 0 mm 5 mps 689 mmHg 32%
    22:00 +28°C° 0 mm 5 mps 690 mmHg 37%
    23:00 +27°C° 0 mm 4 mps 689 mmHg 45%

    Tomorrow, 25 August, Friday

    Time Temperature Precipitation Wind Pressure Humidity
    00:00 +26°C° 0 mm 4 mps 689 mmHg 53%
    01:00 +25°C° 0 mm 3 mps 689 mmHg 62%
    02:00 +24°C° 0 mm 3 mps 688 mmHg 65%
    03:00 +24°C° 0 mm 2 mps 688 mmHg 68%
    04:00 +23°C° 0 mm 2 mps 688 mmHg 72%
    05:00 +23°C° 0 mm 2 mps 688 mmHg 72%
    06:00 +23°C° 0 mm 2 mps 688 mmHg 72%
    07:00 +23°C° 0 mm 2 mps 688 mmHg 73%
    08:00 +24°C° 0 mm 2 mps 689 mmHg 63%
    09:00 +26°C° 0 mm 3 mps 689 mmHg 53%
    10:00 +28°C° 0 mm 3 mps 690 mmHg 43%
    11:00 +29°C° 0 mm 3 mps 689 mmHg 38%
    12:00 +30°C° 0 mm 3 mps 689 mmHg 32%
    13:00 +31°C° 0 mm 3 mps 689 mmHg 27%
    14:00 +33°C° 0 mm 3 mps 689 mmHg 26%
    15:00 +34°C° 0 mm 3 mps 688 mmHg 24%
    16:00 +34°C° 0 mm 3 mps 688 mmHg 22%
    17:00 +33°C° 0 mm 4 mps 688 mmHg 24%
    18:00 +33°C° 0 mm 4 mps 688 mmHg 26%
    19:00 +32°C° 0 mm 5 mps 688 mmHg 27%
    20:00 +30°C° 0 mm 5 mps 688 mmHg 32%
    21:00 +29°C° 0 mm 5 mps 688 mmHg 38%
    22:00 +27°C° 0 mm 6 mps 689 mmHg 43%
    23:00 +27°C° 0 mm 5 mps 688 mmHg 47%

    Day after tomorrow, 26 August, Saturday

    Time Temperature Precipitation Wind Pressure Humidity
    00:00 +26°C° 0 mm 4 mps 688 mmHg 51%
    01:00 +25°C° 0 mm 3 mps 688 mmHg 55%
    02:00 +24°C° 0 mm 2 mps 687 mmHg 57%
    03:00 +24°C° 0 mm 2 mps 687 mmHg 58%
    04:00 +23°C° 0 mm 2 mps 687 mmHg 60%
    05:00 +24°C° 0 mm 2 mps 687 mmHg 57%
    06:00 +24°C° 0 mm 2 mps 687 mmHg 54%
    07:00 +24°C° 0 mm 2 mps 687 mmHg 51%
    08:00 +26°C° 0 mm 2 mps 688 mmHg 43%
    09:00 +27°C° 0 mm 2 mps 688 mmHg 35%
    10:00 +29°C° 0 mm 2 mps 689 mmHg 28%
    11:00 +30°C° 0 mm 2 mps 689 mmHg 25%
    12:00 +32°C° 0 mm 2 mps 688 mmHg 23%
    13:00 +34°C° 0 mm 2 mps 688 mmHg 21%
    14:00 +34°C° 0 mm 2 mps 688 mmHg 20%
    15:00 +35°C° 0 mm 2 mps 688 mmHg 19%
    16:00 +35°C° 0 mm 2 mps 687 mmHg 18%
    17:00 +34°C° 0 mm 3 mps 687 mmHg 20%
    18:00 +34°C° 0 mm 4 mps 687 mmHg 21%
    19:00 +33°C° 0 mm 5 mps 687 mmHg 23%
    20:00 +32°C° 0 mm 5 mps 687 mmHg 27%
    21:00 +30°C° 0 mm 5 mps 688 mmHg 31%
    22:00 +29°C° 0 mm 5 mps 688 mmHg 35%
    23:00 +28°C° 0 mm 4 mps 688 mmHg 39%

    27 August, Sunday

    Time Temperature Precipitation Wind Pressure Humidity
    00:00 +27°C° 0 mm 4 mps 687 mmHg 42%
    01:00 +27°C° 0 mm 3 mps 687 mmHg 45%
    02:00 +26°C° 0 mm 2 mps 687 mmHg 46%
    03:00 +26°C° 0 mm 2 mps 687 mmHg 48%
    04:00 +25°C° 0 mm 2 mps 687 mmHg 50%
    05:00 +25°C° 0 mm 2 mps 687 mmHg 49%
    06:00 +26°C° 0 mm 2 mps 687 mmHg 48%
    07:00 +26°C° 0 mm 1 mps 687 mmHg 47%
    08:00 +27°C° 0 mm 2 mps 688 mmHg 42%
    09:00 +29°C° 0 mm 2 mps 688 mmHg 38%
    10:00 +30°C° 0 mm 2 mps 689 mmHg 33%
    11:00 +31°C° 0 mm 2 mps 688 mmHg 30%
    12:00 +32°C° 0 mm 2 mps 688 mmHg 26%
    13:00 +34°C° 0 mm 2 mps 688 mmHg 23%
    14:00 +35°C° 0 mm 3 mps 688 mmHg 21%
    15:00 +35°C° 0 mm 3 mps 688 mmHg 20%
    16:00 +36°C° 0 mm 4 mps 688 mmHg 19%
    17:00 +35°C° 0 mm 4 mps 687 mmHg 20%
    18:00 +34°C° 0 mm 4 mps 687 mmHg 22%
    19:00 +33°C° 0 mm 4 mps 687 mmHg 23%
    20:00 +32°C° 0 mm 4 mps 688 mmHg 27%
    21:00 +30°C° 0 mm 3 mps 688 mmHg 30%
    22:00 +29°C° 0 mm 3 mps 688 mmHg 33%
    23:00 +29°C° 0 mm 2 mps 688 mmHg 36%

    28 August, Monday

    Time Temperature Precipitation Wind Pressure Humidity
    00:00 +28°C° 0 mm 2 mps 688 mmHg 38%
    01:00 +27°C° 0 mm 2 mps 687 mmHg 40%
    02:00 +27°C° 0 mm 1 mps 687 mmHg 42%
    03:00 +26°C° 0 mm 1 mps 687 mmHg 43%
    04:00 +26°C° 0 mm 1 mps 687 mmHg 45%
    05:00 +26°C° 0 mm 1 mps 687 mmHg 44%
    06:00 +26°C° 0 mm 1 mps 687 mmHg 44%
    07:00 +26°C° 0 mm 1 mps 688 mmHg 43%
    08:00 +28°C° 0 mm 1 mps 688 mmHg 38%
    09:00 +29°C° 0 mm 1 mps 688 mmHg 34%
    10:00 +31°C° 0 mm 2 mps 689 mmHg 29%
    11:00 +32°C° 0 mm 2 mps 688 mmHg 25%
    12:00 +34°C° 0 mm 2 mps 688 mmHg 22%
    13:00 +35°C° 0 mm 2 mps 688 mmHg 18%
    14:00 +35°C° 0 mm 3 mps 688 mmHg 17%
    15:00 +36°C° 0 mm 3 mps 688 mmHg 16%
    16:00 +36°C° 0 mm 3 mps 688 mmHg 15%
    17:00 +35°C° 0 mm 4 mps 687 mmHg 16%
    18:00 +35°C° 0 mm 4 mps 687 mmHg 16%
    19:00 +34°C° 0 mm 4 mps 687 mmHg 17%
    20:00 +33°C° 0 mm 4 mps 688 mmHg 19%
    21:00 +31°C° 0 mm 3 mps 688 mmHg 22%
    22:00 +29°C° 0 mm 3 mps 688 mmHg 24%
    23:00 +29°C° 0 mm 3 mps 688 mmHg 26%

    29 August, Tuesday

    Time Temperature Precipitation Wind Pressure Humidity
    00:00 +28°C° 0 mm 2 mps 687 mmHg 29%
    01:00 +27°C° 0 mm 2 mps 687 mmHg 32%
    02:00 +27°C° 0 mm 1 mps 687 mmHg 33%
    03:00 +26°C° 0 mm 1 mps 687 mmHg 35%
    04:00 +25°C° 0 mm 1 mps 686 mmHg 37%
    05:00 +26°C° 0 mm 1 mps 687 mmHg 36%
    06:00 +26°C° 0 mm 1 mps 687 mmHg 35%
    07:00 +24°C° 0 mm 0 mps 687 mmHg 35%
    08:00 +28°C° 0 mm 1 mps 687 mmHg 31%
    09:00 +29°C° 0 mm 1 mps 688 mmHg 27%
    10:00 +31°C° 0 mm 1 mps 688 mmHg 23%
    11:00 +32°C° 0 mm 1 mps 688 mmHg 21%
    12:00 +33°C° 0 mm 1 mps 688 mmHg 18%
    13:00 +35°C° 0 mm 2 mps 688 mmHg 15%
    14:00 +35°C° 0 mm 2 mps 687 mmHg 15%
    15:00 +35°C° 0 mm 3 mps 687 mmHg 14%
    16:00 +36°C° 0 mm 3 mps 687 mmHg 13%
    17:00 +35°C° 0 mm 3 mps 687 mmHg 14%
    18:00 +35°C° 0 mm 3 mps 687 mmHg 14%
    19:00 +34°C° 0 mm 4 mps 686 mmHg 15%
    20:00 +33°C° 0 mm 4 mps 687 mmHg 17%
    21:00 +32°C° 0 mm 4 mps 687 mmHg 19%
    22:00 +30°C° 0 mm 4 mps 687 mmHg 22%
    23:00 +29°C° 0 mm 3 mps 687 mmHg 23%
    Show more